Location: Unspecified
(0.0000°N, 0.0000°E)
Time: 06:07:35
(UTC+00:00)

Tiros 1 - Pass Details

Date: 08 October 2020
Orbit: 630 x 663 km, 48.4° (Epoch: 28 October)

Event Time Altitude Azimuth Distance (km) Brightness Sun altitude
Rises 07:11:13 0° 204° (SSW) 2,916 10.3 20.8°
Reaches altitude 10° 07:13:42 10° 195° (SSW) 2,005 9.7 21.4°
Maximum altitude 07:17:54 35° 129° (SE) 1,021 9.4 22.5°
Drops below altitude 10° 07:22:05 10° 63° (ENE) 1,998 10.7 23.5°
Sets 07:24:33 0° 54° (NE) 2,905 11.2 24.1°
